Stündliche Wetter Cegielnia

Heute, 28 Oktober, Mittwoch

Zeit Temperatur Niederschläge Wind Luftdruck Luftfeuchtigkeit
00:00 +12°C° 0.2 mm 2 m/S 752 mmHg 88%
01:00 +12°C° 0.2 mm 2 m/S 753 mmHg 89%
02:00 +12°C° 0.1 mm 1 m/S 753 mmHg 89%
03:00 +12°C° 0.1 mm 1 m/S 753 mmHg 90%
04:00 +11°C° 0.1 mm 1 m/S 753 mmHg 91%
05:00 +11°C° 0 mm 1 m/S 753 mmHg 90%
06:00 +11°C° 0 mm 1 m/S 753 mmHg 90%
07:00 +10°C° 0 mm 2 m/S 753 mmHg 90%
08:00 +12°C° 0 mm 2 m/S 753 mmHg 85%
09:00 +12°C° 0 mm 3 m/S 753 mmHg 80%
10:00 +13°C° 0 mm 3 m/S 753 mmHg 75%
11:00 +13°C° 0 mm 3 m/S 753 mmHg 73%
12:00 +14°C° 0 mm 3 m/S 753 mmHg 72%
13:00 +16°C° 0 mm 3 m/S 752 mmHg 71%
14:00 +14°C° 0 mm 3 m/S 752 mmHg 74%
15:00 +15°C° 0 mm 2 m/S 752 mmHg 77%
16:00 +15°C° 0 mm 2 m/S 752 mmHg 80%
17:00 +14°C° 0 mm 2 m/S 753 mmHg 82%
18:00 +12°C° 0 mm 3 m/S 753 mmHg 85%
19:00 +12°C° 0 mm 3 m/S 753 mmHg 87%
20:00 +12°C° 0 mm 3 m/S 753 mmHg 84%
21:00 +12°C° 0 mm 3 m/S 753 mmHg 82%
22:00 +12°C° 0 mm 2 m/S 753 mmHg 79%
23:00 +11°C° 0 mm 3 m/S 753 mmHg 77%

Morgen, 29 Oktober, Donnerstag

Zeit Temperatur Niederschläge Wind Luftdruck Luftfeuchtigkeit
00:00 +11°C° 0 mm 3 m/S 753 mmHg 75%
01:00 +11°C° 0 mm 3 m/S 753 mmHg 74%
02:00 +10°C° 0 mm 3 m/S 753 mmHg 76%
03:00 +9°C° 0 mm 3 m/S 753 mmHg 78%
04:00 +9°C° 0 mm 3 m/S 753 mmHg 80%
05:00 +9°C° 0 mm 3 m/S 753 mmHg 80%
06:00 +9°C° 0 mm 3 m/S 753 mmHg 81%
07:00 +9°C° 0 mm 3 m/S 753 mmHg 82%
08:00 +10°C° 0 mm 3 m/S 753 mmHg 77%
09:00 +11°C° 0 mm 3 m/S 753 mmHg 71%
10:00 +12°C° 0 mm 4 m/S 753 mmHg 66%
11:00 +13°C° 0 mm 4 m/S 753 mmHg 63%
12:00 +13°C° 0 mm 4 m/S 752 mmHg 60%
13:00 +14°C° 0 mm 5 m/S 752 mmHg 57%
14:00 +13°C° 0 mm 4 m/S 752 mmHg 61%
15:00 +13°C° 0 mm 3 m/S 752 mmHg 66%
16:00 +13°C° 0 mm 2 m/S 752 mmHg 70%
17:00 +11°C° 0.4 mm 3 m/S 752 mmHg 75%
18:00 +11°C° 0.4 mm 3 m/S 752 mmHg 80%
19:00 +11°C° 0.4 mm 4 m/S 752 mmHg 85%
20:00 +10°C° 0.9 mm 4 m/S 753 mmHg 84%
21:00 +9°C° 0.9 mm 5 m/S 753 mmHg 83%
22:00 +8°C° 0.9 mm 6 m/S 753 mmHg 82%
23:00 +8°C° 0.1 mm 5 m/S 753 mmHg 83%

übermorgen, 30 Oktober, Freitag

Zeit Temperatur Niederschläge Wind Luftdruck Luftfeuchtigkeit
00:00 +8°C° 0.1 mm 5 m/S 754 mmHg 83%
01:00 +7°C° 0.1 mm 5 m/S 754 mmHg 83%
02:00 +7°C° 0 mm 5 m/S 754 mmHg 85%
03:00 +6°C° 0 mm 5 m/S 755 mmHg 86%
04:00 +6°C° 0 mm 5 m/S 755 mmHg 88%
05:00 +5°C° 0 mm 4 m/S 755 mmHg 90%
06:00 +5°C° 0 mm 4 m/S 756 mmHg 91%
07:00 +5°C° 0 mm 4 m/S 756 mmHg 92%
08:00 +6°C° 0 mm 4 m/S 756 mmHg 89%
09:00 +6°C° 0 mm 4 m/S 756 mmHg 85%
10:00 +7°C° 0 mm 4 m/S 756 mmHg 82%
11:00 +9°C° 0 mm 3 m/S 756 mmHg 78%
12:00 +9°C° 0 mm 3 m/S 756 mmHg 74%
13:00 +10°C° 0 mm 3 m/S 755 mmHg 70%
14:00 +10°C° 0 mm 3 m/S 755 mmHg 71%
15:00 +9°C° 0 mm 2 m/S 755 mmHg 72%
16:00 +9°C° 0 mm 2 m/S 755 mmHg 72%
17:00 +10°C° 0.2 mm 1 m/S 755 mmHg 75%
18:00 +9°C° 0.2 mm 1 m/S 755 mmHg 78%
19:00 +9°C° 0.2 mm 1 m/S 755 mmHg 81%
20:00 +9°C° 0.2 mm 1 m/S 755 mmHg 81%
21:00 +9°C° 0.2 mm 1 m/S 755 mmHg 81%
22:00 +7°C° 0.2 mm 2 m/S 755 mmHg 81%
23:00 +8°C° 0 mm 1 m/S 756 mmHg 82%

31 Oktober, Samstag

Zeit Temperatur Niederschläge Wind Luftdruck Luftfeuchtigkeit
00:00 +8°C° 0 mm 1 m/S 756 mmHg 84%
01:00 +7°C° 0 mm 1 m/S 756 mmHg 85%
02:00 +7°C° 0 mm 1 m/S 757 mmHg 86%
03:00 +7°C° 0 mm 1 m/S 758 mmHg 87%
04:00 +5°C° 0 mm 2 m/S 759 mmHg 88%
05:00 +6°C° 0 mm 1 m/S 759 mmHg 90%
06:00 +6°C° 0 mm 1 m/S 759 mmHg 91%
07:00 +6°C° 0 mm 1 m/S 760 mmHg 92%
08:00 +7°C° 0 mm 1 m/S 760 mmHg 86%
09:00 +9°C° 0 mm 1 m/S 761 mmHg 81%
10:00 +10°C° 0 mm 1 m/S 762 mmHg 75%
11:00 +11°C° 0 mm 1 m/S 762 mmHg 72%
12:00 +11°C° 0 mm 1 m/S 762 mmHg 68%
13:00 +12°C° 0 mm 1 m/S 762 mmHg 65%
14:00 +11°C° 0 mm 1 m/S 762 mmHg 68%
15:00 +11°C° 0 mm 1 m/S 762 mmHg 72%
16:00 +9°C° 0 mm 0 m/S 762 mmHg 75%
17:00 +8°C° 0 mm 0 m/S 762 mmHg 78%
18:00 +9°C° 0 mm 1 m/S 762 mmHg 80%
19:00 +8°C° 0 mm 1 m/S 763 mmHg 83%
20:00 +8°C° 0 mm 1 m/S 763 mmHg 84%
21:00 +8°C° 0 mm 1 m/S 763 mmHg 86%
22:00 +6°C° 0 mm 2 m/S 763 mmHg 87%
23:00 +6°C° 0 mm 2 m/S 763 mmHg 88%

1 November, Sonntag

Zeit Temperatur Niederschläge Wind Luftdruck Luftfeuchtigkeit
00:00 +6°C° 0 mm 2 m/S 763 mmHg 89%
01:00 +6°C° 0 mm 2 m/S 763 mmHg 91%
02:00 +5°C° 0 mm 2 m/S 762 mmHg 91%
03:00 +5°C° 0 mm 2 m/S 762 mmHg 91%
04:00 +4°C° 0 mm 3 m/S 762 mmHg 92%
05:00 +4°C° 0 mm 3 m/S 762 mmHg 92%
06:00 +4°C° 0 mm 3 m/S 762 mmHg 92%
07:00 +3°C° 0 mm 3 m/S 762 mmHg 92%
08:00 +5°C° 0 mm 3 m/S 762 mmHg 85%
09:00 +6°C° 0 mm 4 m/S 761 mmHg 78%
10:00 +7°C° 0 mm 4 m/S 761 mmHg 72%
11:00 +8°C° 0 mm 4 m/S 761 mmHg 67%
12:00 +9°C° 0 mm 5 m/S 761 mmHg 63%
13:00 +10°C° 0 mm 5 m/S 760 mmHg 59%
14:00 +11°C° 0 mm 4 m/S 760 mmHg 63%
15:00 +10°C° 0 mm 4 m/S 760 mmHg 68%
16:00 +8°C° 0 mm 4 m/S 759 mmHg 73%
17:00 +8°C° 0 mm 4 m/S 759 mmHg 76%
18:00 +7°C° 0 mm 4 m/S 759 mmHg 78%
19:00 +7°C° 0 mm 5 m/S 759 mmHg 81%
20:00 +7°C° 0 mm 5 m/S 759 mmHg 82%
21:00 +6°C° 0 mm 5 m/S 759 mmHg 83%
22:00 +6°C° 0 mm 5 m/S 759 mmHg 84%
23:00 +6°C° 0 mm 4 m/S 759 mmHg 84%

2 November, Montag

Zeit Temperatur Niederschläge Wind Luftdruck Luftfeuchtigkeit
00:00 +6°C° 0 mm 4 m/S 758 mmHg 84%
01:00 +6°C° 0 mm 4 m/S 758 mmHg 84%
02:00 +6°C° 0 mm 4 m/S 758 mmHg 82%
03:00 +6°C° 0 mm 4 m/S 758 mmHg 80%
04:00 +6°C° 0 mm 4 m/S 757 mmHg 78%
05:00 +6°C° 0 mm 4 m/S 758 mmHg 77%
06:00 +6°C° 0 mm 4 m/S 758 mmHg 76%
07:00 +6°C° 0 mm 4 m/S 758 mmHg 76%
08:00 +7°C° 0 mm 4 m/S 758 mmHg 72%
09:00 +8°C° 0 mm 4 m/S 758 mmHg 68%
10:00 +11°C° 0 mm 4 m/S 758 mmHg 63%
11:00 +12°C° 0 mm 4 m/S 758 mmHg 63%
12:00 +12°C° 0 mm 4 m/S 758 mmHg 62%
13:00 +13°C° 0 mm 4 m/S 758 mmHg 61%
14:00 +13°C° 0 mm 4 m/S 758 mmHg 64%
15:00 +12°C° 0 mm 4 m/S 758 mmHg 67%
16:00 +12°C° 0 mm 3 m/S 757 mmHg 70%
17:00 +11°C° 0 mm 3 m/S 758 mmHg 71%
18:00 +11°C° 0 mm 3 m/S 758 mmHg 73%
19:00 +11°C° 0 mm 4 m/S 758 mmHg 74%
20:00 +11°C° 0 mm 3 m/S 758 mmHg 75%
21:00 +10°C° 0 mm 3 m/S 758 mmHg 77%
22:00 +10°C° 0 mm 3 m/S 758 mmHg 78%
23:00 +10°C° 0 mm 3 m/S 758 mmHg 79%
Mehr zeigen